Estación de San José

Ultimos registro cada 15 minutos 74
Estación Fecha / Hora Temperatura Humedad Lluvia Velocidad Dirección Radiación Presion
74 San José 10-05-2026 18:15 12,3 77 0 0 144 0 1016,1
73 San José 10-05-2026 18:00 13,6 76 0 0 144 0 1015,7
72 San José 10-05-2026 17:45 14,7 74 0 0 144 0 1015,9
71 San José 10-05-2026 17:30 15,6 72 0 0 144 9 1015,7
70 San José 10-05-2026 17:15 16,2 70 0 0 144 14 1015,8
69 San José 10-05-2026 17:00 16,6 68 0 0 144 16 1015,9
68 San José 10-05-2026 16:45 16,9 68 0 0 144 19 1016
67 San José 10-05-2026 16:30 17,2 66 0 0 144 21 1015,9
66 San José 10-05-2026 16:15 17,4 65 0 0 164 21 1016
65 San José 10-05-2026 16:00 17,6 63 0 0 175 23 1016
64 San José 10-05-2026 15:45 17,9 61 0 0 175 25 1016,1
63 San José 10-05-2026 15:30 18,2 61 0 0 167 25 1016,1
62 San José 10-05-2026 15:15 18,6 62 0 0 213 26 1016,1
61 San José 10-05-2026 15:00 18,8 61 0 0 227 28 1016,1
60 San José 10-05-2026 14:45 18,9 60 0 0 264 30 1016
59 San José 10-05-2026 14:30 19 61 0 0 268 32 1016,2
58 San José 10-05-2026 14:15 18,7 60 0 0 218 51 1016,2
57 San José 10-05-2026 14:00 18,3 60 0 0 258 533 1016,2
56 San José 10-05-2026 13:45 17,8 62 0 0 249 550 1016,3
55 San José 10-05-2026 13:30 17,2 65 0 0 255 566 1016,5
54 San José 10-05-2026 13:15 16,6 64 0 0 158 578 1016,9
53 San José 10-05-2026 13:00 15,8 66 0 0 175 585 1016,9
52 San José 10-05-2026 12:45 15,2 67 0 0 240 589 1017,2
51 San José 10-05-2026 12:30 14,6 68 0 0 175 589 1017,6
50 San José 10-05-2026 12:15 14,1 71 0 0 164 585 1017,8
49 San José 10-05-2026 12:00 13,4 73 0 0 150 578 1017,8
48 San José 10-05-2026 11:45 13 72 0 0 134 566 1018
47 San José 10-05-2026 11:30 12,4 76 0 0 151 550 1018,2
46 San José 10-05-2026 11:15 12 76 0 0 168 533 1018,4
45 San José 10-05-2026 11:00 11,5 78 0 0 160 420 1018,5
44 San José 10-05-2026 10:45 11,3 80 0 0 222 396 1018,6
43 San José 10-05-2026 10:30 10,4 82 0 0 200 455 1018,4
42 San José 10-05-2026 10:15 9,2 85 0 0 150 425 1018,9
41 San José 10-05-2026 10:00 8,3 88 0 0 150 376 1018,8
40 San José 10-05-2026 09:45 7,5 89 0 0 180 339 1018,9
39 San José 10-05-2026 09:30 6,8 95 0 0 155 304 1019
38 San José 10-05-2026 09:15 6,3 95 0 0 155 264 1019,1
37 San José 10-05-2026 09:00 5,1 95 0 0 132 144 1019,1
36 San José 10-05-2026 08:45 4,2 95 0 0 147 30 1019,1
35 San José 10-05-2026 08:30 3,4 95 0 0 147 120 1019,1
34 San José 10-05-2026 08:15 2,1 94 0 0 147 30 1018,7
33 San José 10-05-2026 08:00 0,5 94 0,2 0 145 42 1018,7
32 San José 10-05-2026 07:45 -0,1 92 0 0 145 16 1018,6
31 San José 10-05-2026 07:30 0,6 92 0 0 145 5 1018,5
30 San José 10-05-2026 07:15 1,3 94 0 0 145 0 1018,7
29 San José 10-05-2026 07:00 0,8 93 0 0 145 0 1018,9
28 San José 10-05-2026 06:45 0,6 92 0 0 145 0 1018,7
27 San José 10-05-2026 06:30 1,3 93 0 0 145 0 1018,5
26 San José 10-05-2026 06:15 1,4 93 0 0 145 0 1018,2
25 San José 10-05-2026 06:00 1,7 93 0 0 145 0 1018,3
24 San José 10-05-2026 05:45 1,9 94 0 0 145 0 1018,3
23 San José 10-05-2026 05:30 1,9 94 0 0 151 0 1018,1
22 San José 10-05-2026 05:15 1,8 94 0 0 151 0 1018,1
21 San José 10-05-2026 05:00 0,8 93 0 0 151 0 1018,1
20 San José 10-05-2026 04:45 1,1 93 0 0 151 0 1018,2
19 San José 10-05-2026 04:30 1,2 92 0 0 151 0 1018,2
18 San José 10-05-2026 04:15 1,6 93 0 0 151 0 1018,2
17 San José 10-05-2026 04:00 2 93 0 0 151 0 1018,2
16 San José 10-05-2026 03:45 1,8 93 0 0 151 0 1018,1
15 San José 10-05-2026 03:30 1,6 93 0 0 151 0 1018,1
14 San José 10-05-2026 03:15 1,6 92 0 0 151 0 1018,3
13 San José 10-05-2026 03:00 1,9 93 0 0 151 0 1018,5
12 San José 10-05-2026 02:45 2,3 93 0 0 151 0 1018,7
11 San José 10-05-2026 02:30 2,3 93 0 0 151 0 1018,8
10 San José 10-05-2026 02:15 2,7 94 0 0 153 0 1018,8
9 San José 10-05-2026 02:00 2,2 94 0 0 153 0 1018,9
8 San José 10-05-2026 01:45 1,1 92 0 0 153 0 1019
7 San José 10-05-2026 01:30 1,4 91 0 0 153 0 1019,1
6 San José 10-05-2026 01:15 2,2 92 0 0 153 0 1019
5 San José 10-05-2026 01:00 2,3 93 0 0 153 0 1019
4 San José 10-05-2026 00:45 2,3 92 0 0 153 0 1019
3 San José 10-05-2026 00:30 2,6 92 0 0 153 0 1019,2
2 San José 10-05-2026 00:15 3,1 92 0 0 153 0 1019,3
1 San José 10-05-2026 00:00 3 93 0 0 153 0 1019,3